Find Starlink 34402

NORAD ID: 64446 Int'l Des: 2025-130 Owner: SPXS Country: US Constellation: starlink operational
LEOCIRCULAR

当前视图

正在加载3D地球...

About Starlink 34402

Starlink 34402 (NORAD 64446) is a starlink constellation satellite (v2 mini) launched Jun 18, 2025 by SPXS of US. It operates in LEO, CIRCULAR orbit with a mass of 575.00 kg.

即将过境

Passes for default location (London). Set your location on the main map for personalized predictions.

高度历史

Loading altitude history...

两行轨道根数

1 64446U 25130J 26263.25484105 .00009447 00000-0 29040-3 0 9995
2 64446 53.1581 262.5518 0001548 85.4387 274.6792 15.34399007 70523
Epoch: Sep 20, 2026 • Age: 17 hours

当前状态

高度 464.7 km
远地点 / 近地点 N/A
速度 7.64 km/s
星下点 36.15°N, 60.48°W
发射日期 Jun 18, 2025
运行时间 1.2 years
类型 internet

技术详情

分类 Payload
质量 575.00 kg
干质量 530.00 kg
长度 0.30 m
跨度 29.00 m
形状 ? Box + pan
制造商 SPXS
平台类型 Starlink V2MO
阶段状态 In Orbit
所有者/国家 SPXS/US

Most Searched